owner,sensor,date,latitude,longitude,vertical_datum,sea_water_practical_salinity,qcFlag 
LUMCON,ioos:station:LUMCON:102:1,2019-12-01T00:00:00Z,29.1870,-90.6093,2.386,20.88,11111222 
LUMCON,ioos:station:LUMCON:102:1,2019-12-01T00:15:00Z,29.1870,-90.6093,2.402,21.11,11111222 
LUMCON,ioos:station:LUMCON:102:1,2019-12-01T00:30:00Z,29.1870,-90.6093,2.425,21.18,11111222 
LUMCON,ioos:station:LUMCON:102:1,2019-12-01T00:45:00Z,29.1870,-90.6093,2.434,21.32,11111222 
LUMCON,ioos:station:LUMCON:102:1,2019-12-01T01:00:00Z,29.1870,-90.6093,2.452,21.36,11111222 
LUMCON,ioos:station:LUMCON:102:1,2019-12-01T01:15:00Z,29.1870,-90.6093,2.451,21.5,11111222 
LUMCON,ioos:station:LUMCON:102:1,2019-12-01T01:30:00Z,29.1870,-90.6093,2.462,21.58,11111222 
LUMCON,ioos:station:LUMCON:102:1,2019-12-01T01:45:00Z,29.1870,-90.6093,2.47,21.69,11111222 
LUMCON,ioos:station:LUMCON:102:1,2019-12-01T02:00:00Z,29.1870,-90.6093,2.482,21.77,11111222 
LUMCON,ioos:station:LUMCON:102:1,2019-12-01T02:15:00Z,29.1870,-90.6093,2.493,21.91,11111222 
LUMCON,ioos:station:LUMCON:102:1,2019-12-01T02:30:00Z,29.1870,-90.6093,2.512,22.11,11111222 
LUMCON,ioos:station:LUMCON:102:1,2019-12-01T02:45:00Z,29.1870,-90.6093,2.522,22.31,11111222 
LUMCON,ioos:station:LUMCON:102:1,2019-12-01T03:00:00Z,29.1870,-90.6093,2.53,22.55,11111222 
LUMCON,ioos:station:LUMCON:102:1,2019-12-01T03:15:00Z,29.1870,-90.6093,2.54,22.85,11111222 
LUMCON,ioos:station:LUMCON:102:1,2019-12-01T03:30:00Z,29.1870,-90.6093,2.559,22.96,11111222 
LUMCON,ioos:station:LUMCON:102:1,2019-12-01T03:45:00Z,29.1870,-90.6093,2.56,23.03,11111222 
LUMCON,ioos:station:LUMCON:102:1,2019-12-01T04:00:00Z,29.1870,-90.6093,2.581,23.04,11111222 
LUMCON,ioos:station:LUMCON:102:1,2019-12-01T04:15:00Z,29.1870,-90.6093,2.588,23.16,11111222 
LUMCON,ioos:station:LUMCON:102:1,2019-12-01T04:30:00Z,29.1870,-90.6093,2.57,23.39,11111222 
LUMCON,ioos:station:LUMCON:102:1,2019-12-01T04:45:00Z,29.1870,-90.6093,2.58,23.46,11111222 
LUMCON,ioos:station:LUMCON:102:1,2019-12-01T05:00:00Z,29.1870,-90.6093,2.585,23.34,11111222 
LUMCON,ioos:station:LUMCON:102:1,2019-12-01T05:15:00Z,29.1870,-90.6093,2.583,23.44,11111222 
LUMCON,ioos:station:LUMCON:102:1,2019-12-01T05:30:00Z,29.1870,-90.6093,2.589,23.6,11111222 
LUMCON,ioos:station:LUMCON:102:1,2019-12-01T05:45:00Z,29.1870,-90.6093,2.575,23.74,11111222 
LUMCON,ioos:station:LUMCON:102:1,2019-12-01T06:00:00Z,29.1870,-90.6093,2.588,23.77,11111222 
LUMCON,ioos:station:LUMCON:102:1,2019-12-01T06:15:00Z,29.1870,-90.6093,2.577,23.72,11111222 
LUMCON,ioos:station:LUMCON:102:1,2019-12-01T06:30:00Z,29.1870,-90.6093,2.562,23.63,11111222 
LUMCON,ioos:station:LUMCON:102:1,2019-12-01T06:45:00Z,29.1870,-90.6093,2.564,23.61,11111222 
LUMCON,ioos:station:LUMCON:102:1,2019-12-01T07:00:00Z,29.1870,-90.6093,2.555,23.81,11111222 
LUMCON,ioos:station:LUMCON:102:1,2019-12-01T07:15:00Z,29.1870,-90.6093,2.545,24.03,11111222 
LUMCON,ioos:station:LUMCON:102:1,2019-12-01T07:30:00Z,29.1870,-90.6093,2.548,24.02,11111222 
LUMCON,ioos:station:LUMCON:102:1,2019-12-01T07:45:00Z,29.1870,-90.6093,2.531,23.8,11111222 
LUMCON,ioos:station:LUMCON:102:1,2019-12-01T08:00:00Z,29.1870,-90.6093,2.556,24.16,11111222 
LUMCON,ioos:station:LUMCON:102:1,2019-12-01T08:15:00Z,29.1870,-90.6093,2.535,23.98,11111222 
LUMCON,ioos:station:LUMCON:102:1,2019-12-01T08:30:00Z,29.1870,-90.6093,2.544,23.84,11111222 
LUMCON,ioos:station:LUMCON:102:1,2019-12-01T08:45:00Z,29.1870,-90.6093,2.524,23.58,11111222 
LUMCON,ioos:station:LUMCON:102:1,2019-12-01T09:00:00Z,29.1870,-90.6093,2.523,23.78,11111222 
LUMCON,ioos:station:LUMCON:102:1,2019-12-01T09:15:00Z,29.1870,-90.6093,2.485,23.41,11111222 
LUMCON,ioos:station:LUMCON:102:1,2019-12-01T09:30:00Z,29.1870,-90.6093,2.48,23.11,11111222 
LUMCON,ioos:station:LUMCON:102:1,2019-12-01T09:45:00Z,29.1870,-90.6093,2.46,23.57,11111222 
LUMCON,ioos:station:LUMCON:102:1,2019-12-01T10:00:00Z,29.1870,-90.6093,2.455,23.15,11111222 
LUMCON,ioos:station:LUMCON:102:1,2019-12-01T10:15:00Z,29.1870,-90.6093,2.455,22.77,11111222 
LUMCON,ioos:station:LUMCON:102:1,2019-12-01T10:30:00Z,29.1870,-90.6093,2.413,22.93,11111222 
LUMCON,ioos:station:LUMCON:102:1,2019-12-01T10:45:00Z,29.1870,-90.6093,2.419,22.5,11111222 
LUMCON,ioos:station:LUMCON:102:1,2019-12-01T11:00:00Z,29.1870,-90.6093,2.386,23.11,11111222 
LUMCON,ioos:station:LUMCON:102:1,2019-12-01T11:15:00Z,29.1870,-90.6093,2.4,22.38,11111222 
LUMCON,ioos:station:LUMCON:102:1,2019-12-01T11:30:00Z,29.1870,-90.6093,2.376,22.03,11111222 
LUMCON,ioos:station:LUMCON:102:1,2019-12-01T11:45:00Z,29.1870,-90.6093,2.35,22.08,11111222 
LUMCON,ioos:station:LUMCON:102:1,2019-12-01T12:00:00Z,29.1870,-90.6093,2.317,21.41,11111222 
LUMCON,ioos:station:LUMCON:102:1,2019-12-01T12:15:00Z,29.1870,-90.6093,2.301,20.71,11111222 
LUMCON,ioos:station:LUMCON:102:1,2019-12-01T12:30:00Z,29.1870,-90.6093,2.301,21.1,11111222 
LUMCON,ioos:station:LUMCON:102:1,2019-12-01T12:45:00Z,29.1870,-90.6093,2.278,21.46,11111222 
LUMCON,ioos:station:LUMCON:102:1,2019-12-01T13:00:00Z,29.1870,-90.6093,2.27,21.5,11111222 
LUMCON,ioos:station:LUMCON:102:1,2019-12-01T13:15:00Z,29.1870,-90.6093,2.247,21.66,11111222 
LUMCON,ioos:station:LUMCON:102:1,2019-12-01T13:30:00Z,29.1870,-90.6093,2.237,21.53,11111222 
LUMCON,ioos:station:LUMCON:102:1,2019-12-01T13:45:00Z,29.1870,-90.6093,2.208,21.33,11111222 
LUMCON,ioos:station:LUMCON:102:1,2019-12-01T14:00:00Z,29.1870,-90.6093,2.18,21.09,11111222 
LUMCON,ioos:station:LUMCON:102:1,2019-12-01T14:15:00Z,29.1870,-90.6093,2.155,20.94,11111222 
LUMCON,ioos:station:LUMCON:102:1,2019-12-01T14:30:00Z,29.1870,-90.6093,2.122,20.6,11111222 
LUMCON,ioos:station:LUMCON:102:1,2019-12-01T14:45:00Z,29.1870,-90.6093,2.093,20.27,11111222 
LUMCON,ioos:station:LUMCON:102:1,2019-12-01T15:00:00Z,29.1870,-90.6093,2.084,20.02,11111222 
LUMCON,ioos:station:LUMCON:102:1,2019-12-01T15:15:00Z,29.1870,-90.6093,2.07,19.78,11111222 
LUMCON,ioos:station:LUMCON:102:1,2019-12-01T15:30:00Z,29.1870,-90.6093,2.076,19.57,11111222 
LUMCON,ioos:station:LUMCON:102:1,2019-12-01T15:45:00Z,29.1870,-90.6093,2.074,19.32,11111222 
LUMCON,ioos:station:LUMCON:102:1,2019-12-01T16:00:00Z,29.1870,-90.6093,2.086,19.1,11111222 
LUMCON,ioos:station:LUMCON:102:1,2019-12-01T16:15:00Z,29.1870,-90.6093,2.082,18.99,11111222 
LUMCON,ioos:station:LUMCON:102:1,2019-12-01T16:30:00Z,29.1870,-90.6093,2.109,18.99,11111222 
LUMCON,ioos:station:LUMCON:102:1,2019-12-01T16:45:00Z,29.1870,-90.6093,2.114,18.93,11111222 
LUMCON,ioos:station:LUMCON:102:1,2019-12-01T17:00:00Z,29.1870,-90.6093,2.117,18.9,11111222 
LUMCON,ioos:station:LUMCON:102:1,2019-12-01T17:15:00Z,29.1870,-90.6093,2.115,18.65,11111222 
LUMCON,ioos:station:LUMCON:102:1,2019-12-01T17:30:00Z,29.1870,-90.6093,2.103,18.58,11111222 
LUMCON,ioos:station:LUMCON:102:1,2019-12-01T17:45:00Z,29.1870,-90.6093,2.085,17.9,11111222 
LUMCON,ioos:station:LUMCON:102:1,2019-12-01T18:00:00Z,29.1870,-90.6093,2.073,17.8,11111222 
LUMCON,ioos:station:LUMCON:102:1,2019-12-01T18:15:00Z,29.1870,-90.6093,2.055,17.48,11111222 
LUMCON,ioos:station:LUMCON:102:1,2019-12-01T18:30:00Z,29.1870,-90.6093,2.054,17.46,11111222 
LUMCON,ioos:station:LUMCON:102:1,2019-12-01T18:45:00Z,29.1870,-90.6093,2.048,17.4,11111222 
LUMCON,ioos:station:LUMCON:102:1,2019-12-01T19:00:00Z,29.1870,-90.6093,2.043,16.59,11111222 
LUMCON,ioos:station:LUMCON:102:1,2019-12-01T19:15:00Z,29.1870,-90.6093,2.041,16.88,11111222 
LUMCON,ioos:station:LUMCON:102:1,2019-12-01T19:30:00Z,29.1870,-90.6093,2.051,16.79,11111222 
LUMCON,ioos:station:LUMCON:102:1,2019-12-01T19:45:00Z,29.1870,-90.6093,2.055,16.44,11111222 
LUMCON,ioos:station:LUMCON:102:1,2019-12-01T20:00:00Z,29.1870,-90.6093,2.054,17.18,11111222 
LUMCON,ioos:station:LUMCON:102:1,2019-12-01T20:15:00Z,29.1870,-90.6093,2.056,16.71,11111222 
LUMCON,ioos:station:LUMCON:102:1,2019-12-01T20:30:00Z,29.1870,-90.6093,2.075,16.92,11111222 
LUMCON,ioos:station:LUMCON:102:1,2019-12-01T20:45:00Z,29.1870,-90.6093,2.089,16.71,11111222 
LUMCON,ioos:station:LUMCON:102:1,2019-12-01T21:00:00Z,29.1870,-90.6093,2.097,16.97,11111222 
LUMCON,ioos:station:LUMCON:102:1,2019-12-01T21:15:00Z,29.1870,-90.6093,2.102,16.77,11111222 
LUMCON,ioos:station:LUMCON:102:1,2019-12-01T21:30:00Z,29.1870,-90.6093,2.109,16.91,11111222 
LUMCON,ioos:station:LUMCON:102:1,2019-12-01T21:45:00Z,29.1870,-90.6093,2.113,16.99,11111222 
LUMCON,ioos:station:LUMCON:102:1,2019-12-01T22:00:00Z,29.1870,-90.6093,2.132,17.49,11111222 
LUMCON,ioos:station:LUMCON:102:1,2019-12-01T22:15:00Z,29.1870,-90.6093,2.14,17.84,11111222 
LUMCON,ioos:station:LUMCON:102:1,2019-12-01T22:30:00Z,29.1870,-90.6093,2.159,17.14,11111222 
LUMCON,ioos:station:LUMCON:102:1,2019-12-01T22:45:00Z,29.1870,-90.6093,2.172,16.84,11111222 
LUMCON,ioos:station:LUMCON:102:1,2019-12-01T23:00:00Z,29.1870,-90.6093,2.172,17.24,11111222 
LUMCON,ioos:station:LUMCON:102:1,2019-12-01T23:15:00Z,29.1870,-90.6093,2.184,17.65,11111222 
LUMCON,ioos:station:LUMCON:102:1,2019-12-01T23:30:00Z,29.1870,-90.6093,2.183,18.21,11111222 
LUMCON,ioos:station:LUMCON:102:1,2019-12-01T23:45:00Z,29.1870,-90.6093,2.18,18.67,11111222 
LUMCON,ioos:station:LUMCON:102:1,2019-12-02T00:00:00Z,29.1870,-90.6093,2.188,19.2,11111222 
LUMCON,ioos:station:LUMCON:102:1,2019-12-02T00:15:00Z,29.1870,-90.6093,2.191,19.79,11111222 
LUMCON,ioos:station:LUMCON:102:1,2019-12-02T00:30:00Z,29.1870,-90.6093,2.202,20.02,11111222 
LUMCON,ioos:station:LUMCON:102:1,2019-12-02T00:45:00Z,29.1870,-90.6093,2.205,19.98,11111222 
LUMCON,ioos:station:LUMCON:102:1,2019-12-02T01:00:00Z,29.1870,-90.6093,2.208,19.96,11111222 
LUMCON,ioos:station:LUMCON:102:1,2019-12-02T01:15:00Z,29.1870,-90.6093,2.215,19.82,11111222 
LUMCON,ioos:station:LUMCON:102:1,2019-12-02T01:30:00Z,29.1870,-90.6093,2.225,19.73,11111222 
LUMCON,ioos:station:LUMCON:102:1,2019-12-02T01:45:00Z,29.1870,-90.6093,2.222,19.71,11111222 
LUMCON,ioos:station:LUMCON:102:1,2019-12-02T02:00:00Z,29.1870,-90.6093,2.227,19.68,11111222 
LUMCON,ioos:station:LUMCON:102:1,2019-12-02T02:15:00Z,29.1870,-90.6093,2.221,19.8,11111222 
LUMCON,ioos:station:LUMCON:102:1,2019-12-02T02:30:00Z,29.1870,-90.6093,2.225,20.01,11111222 
LUMCON,ioos:station:LUMCON:102:1,2019-12-02T02:45:00Z,29.1870,-90.6093,2.229,20.22,11111222 
LUMCON,ioos:station:LUMCON:102:1,2019-12-02T03:00:00Z,29.1870,-90.6093,2.225,20.39,11111222 
LUMCON,ioos:station:LUMCON:102:1,2019-12-02T03:15:00Z,29.1870,-90.6093,2.199,20.49,11111222 
LUMCON,ioos:station:LUMCON:102:1,2019-12-02T03:30:00Z,29.1870,-90.6093,2.195,20.52,11111222 
LUMCON,ioos:station:LUMCON:102:1,2019-12-02T03:45:00Z,29.1870,-90.6093,2.192,20.59,11111222 
LUMCON,ioos:station:LUMCON:102:1,2019-12-02T04:00:00Z,29.1870,-90.6093,2.192,20.66,11111222 
LUMCON,ioos:station:LUMCON:102:1,2019-12-02T04:15:00Z,29.1870,-90.6093,2.188,20.71,11111222 
LUMCON,ioos:station:LUMCON:102:1,2019-12-02T04:30:00Z,29.1870,-90.6093,2.187,20.78,11111222 
LUMCON,ioos:station:LUMCON:102:1,2019-12-02T04:45:00Z,29.1870,-90.6093,2.165,20.82,11111222 
LUMCON,ioos:station:LUMCON:102:1,2019-12-02T05:00:00Z,29.1870,-90.6093,2.165,20.88,11111222 
LUMCON,ioos:station:LUMCON:102:1,2019-12-02T05:15:00Z,29.1870,-90.6093,2.141,20.91,11111222 
LUMCON,ioos:station:LUMCON:102:1,2019-12-02T05:30:00Z,29.1870,-90.6093,2.139,20.8,11111222 
LUMCON,ioos:station:LUMCON:102:1,2019-12-02T05:45:00Z,29.1870,-90.6093,2.141,20.53,11111222 
LUMCON,ioos:station:LUMCON:102:1,2019-12-02T06:00:00Z,29.1870,-90.6093,2.122,20.46,11111222 
LUMCON,ioos:station:LUMCON:102:1,2019-12-02T06:15:00Z,29.1870,-90.6093,2.119,20.41,11111222 
LUMCON,ioos:station:LUMCON:102:1,2019-12-02T06:30:00Z,29.1870,-90.6093,2.101,20.31,11111222 
LUMCON,ioos:station:LUMCON:102:1,2019-12-02T06:45:00Z,29.1870,-90.6093,2.08,20.19,11111222 
LUMCON,ioos:station:LUMCON:102:1,2019-12-02T07:00:00Z,29.1870,-90.6093,2.081,20.06,11111222 
LUMCON,ioos:station:LUMCON:102:1,2019-12-02T07:15:00Z,29.1870,-90.6093,2.075,19.71,11111222 
LUMCON,ioos:station:LUMCON:102:1,2019-12-02T07:30:00Z,29.1870,-90.6093,2.066,19.57,11111222 
LUMCON,ioos:station:LUMCON:102:1,2019-12-02T07:45:00Z,29.1870,-90.6093,2.076,19.66,11111222 
LUMCON,ioos:station:LUMCON:102:1,2019-12-02T08:00:00Z,29.1870,-90.6093,2.078,19.45,11111222 
LUMCON,ioos:station:LUMCON:102:1,2019-12-02T08:15:00Z,29.1870,-90.6093,2.092,18.78,11111222 
LUMCON,ioos:station:LUMCON:102:1,2019-12-02T08:30:00Z,29.1870,-90.6093,2.103,17.28,11111222 
LUMCON,ioos:station:LUMCON:102:1,2019-12-02T08:45:00Z,29.1870,-90.6093,2.101,17.3,11111222 
LUMCON,ioos:station:LUMCON:102:1,2019-12-02T09:00:00Z,29.1870,-90.6093,2.1,17.95,11111222 
LUMCON,ioos:station:LUMCON:102:1,2019-12-02T09:15:00Z,29.1870,-90.6093,2.095,19.65,11111222 
LUMCON,ioos:station:LUMCON:102:1,2019-12-02T09:30:00Z,29.1870,-90.6093,2.079,18.99,11111222 
LUMCON,ioos:station:LUMCON:102:1,2019-12-02T09:45:00Z,29.1870,-90.6093,2.06,19.22,11111222 
LUMCON,ioos:station:LUMCON:102:1,2019-12-02T10:00:00Z,29.1870,-90.6093,2.029,17.83,11111222 
LUMCON,ioos:station:LUMCON:102:1,2019-12-02T10:15:00Z,29.1870,-90.6093,2.021,16.57,11111222 
LUMCON,ioos:station:LUMCON:102:1,2019-12-02T10:30:00Z,29.1870,-90.6093,2.009,16.35,11111222 
LUMCON,ioos:station:LUMCON:102:1,2019-12-02T10:45:00Z,29.1870,-90.6093,1.99,14.94,11111222 
LUMCON,ioos:station:LUMCON:102:1,2019-12-02T11:00:00Z,29.1870,-90.6093,1.977,14.71,11111222 
LUMCON,ioos:station:LUMCON:102:1,2019-12-02T11:15:00Z,29.1870,-90.6093,1.976,14.72,11111222 
LUMCON,ioos:station:LUMCON:102:1,2019-12-02T11:30:00Z,29.1870,-90.6093,1.958,15.11,11111222 
LUMCON,ioos:station:LUMCON:102:1,2019-12-02T11:45:00Z,29.1870,-90.6093,1.95,14.65,11111222 
LUMCON,ioos:station:LUMCON:102:1,2019-12-02T12:00:00Z,29.1870,-90.6093,1.944,14.04,11111222 
LUMCON,ioos:station:LUMCON:102:1,2019-12-02T12:15:00Z,29.1870,-90.6093,1.936,14.37,11111222 
LUMCON,ioos:station:LUMCON:102:1,2019-12-02T12:30:00Z,29.1870,-90.6093,1.93,14.21,11111222 
LUMCON,ioos:station:LUMCON:102:1,2019-12-02T12:45:00Z,29.1870,-90.6093,1.916,14.02,11111222 
LUMCON,ioos:station:LUMCON:102:1,2019-12-02T13:00:00Z,29.1870,-90.6093,1.901,13.3,11111222 
LUMCON,ioos:station:LUMCON:102:1,2019-12-02T13:15:00Z,29.1870,-90.6093,1.881,13.06,11111222 
LUMCON,ioos:station:LUMCON:102:1,2019-12-02T13:30:00Z,29.1870,-90.6093,1.875,12.98,11111222 
LUMCON,ioos:station:LUMCON:102:1,2019-12-02T13:45:00Z,29.1870,-90.6093,1.859,12.21,11111222 
LUMCON,ioos:station:LUMCON:102:1,2019-12-02T14:00:00Z,29.1870,-90.6093,1.853,11.48,11111222 
LUMCON,ioos:station:LUMCON:102:1,2019-12-02T14:15:00Z,29.1870,-90.6093,1.844,10.51,11111222 
LUMCON,ioos:station:LUMCON:102:1,2019-12-02T14:30:00Z,29.1870,-90.6093,1.837,10.23,11111222 
LUMCON,ioos:station:LUMCON:102:1,2019-12-02T14:45:00Z,29.1870,-90.6093,1.824,9.91,11111222 
LUMCON,ioos:station:LUMCON:102:1,2019-12-02T15:00:00Z,29.1870,-90.6093,1.811,10.01,11111222 
LUMCON,ioos:station:LUMCON:102:1,2019-12-02T15:15:00Z,29.1870,-90.6093,1.813,10.11,11111222 
LUMCON,ioos:station:LUMCON:102:1,2019-12-02T15:30:00Z,29.1870,-90.6093,1.804,10.09,11111222 
LUMCON,ioos:station:LUMCON:102:1,2019-12-02T15:45:00Z,29.1870,-90.6093,1.807,10.27,11111222 
LUMCON,ioos:station:LUMCON:102:1,2019-12-02T16:00:00Z,29.1870,-90.6093,1.784,9.84,11111222 
LUMCON,ioos:station:LUMCON:102:1,2019-12-02T16:15:00Z,29.1870,-90.6093,1.791,8.94,11111222 
LUMCON,ioos:station:LUMCON:102:1,2019-12-02T16:30:00Z,29.1870,-90.6093,1.783,8.79,11111222 
LUMCON,ioos:station:LUMCON:102:1,2019-12-02T16:45:00Z,29.1870,-90.6093,1.786,8.13,11111222 
LUMCON,ioos:station:LUMCON:102:1,2019-12-02T17:00:00Z,29.1870,-90.6093,1.794,8.18,11111222 
LUMCON,ioos:station:LUMCON:102:1,2019-12-02T17:15:00Z,29.1870,-90.6093,1.806,8.53,11111222 
LUMCON,ioos:station:LUMCON:102:1,2019-12-02T17:30:00Z,29.1870,-90.6093,1.822,8.92,11111222 
LUMCON,ioos:station:LUMCON:102:1,2019-12-02T17:45:00Z,29.1870,-90.6093,1.828,10.32,11111222 
LUMCON,ioos:station:LUMCON:102:1,2019-12-02T18:00:00Z,29.1870,-90.6093,1.839,11.37,11111222 
LUMCON,ioos:station:LUMCON:102:1,2019-12-02T18:15:00Z,29.1870,-90.6093,1.85,10.5,11111222 
LUMCON,ioos:station:LUMCON:102:1,2019-12-02T18:30:00Z,29.1870,-90.6093,1.866,12.49,11111222 
LUMCON,ioos:station:LUMCON:102:1,2019-12-02T18:45:00Z,29.1870,-90.6093,1.88,10.94,11111222 
LUMCON,ioos:station:LUMCON:102:1,2019-12-02T19:00:00Z,29.1870,-90.6093,1.887,11.31,11111222 
LUMCON,ioos:station:LUMCON:102:1,2019-12-02T19:15:00Z,29.1870,-90.6093,1.899,10.2,11111222 
LUMCON,ioos:station:LUMCON:102:1,2019-12-02T19:30:00Z,29.1870,-90.6093,1.914,9.74,11111222 
LUMCON,ioos:station:LUMCON:102:1,2019-12-02T19:45:00Z,29.1870,-90.6093,1.929,9.95,11111222 
LUMCON,ioos:station:LUMCON:102:1,2019-12-02T20:00:00Z,29.1870,-90.6093,1.938,8.83,11111222 
LUMCON,ioos:station:LUMCON:102:1,2019-12-02T20:15:00Z,29.1870,-90.6093,1.949,8.89,11111222 
LUMCON,ioos:station:LUMCON:102:1,2019-12-02T20:30:00Z,29.1870,-90.6093,1.963,9.81,11111222 
LUMCON,ioos:station:LUMCON:102:1,2019-12-02T20:45:00Z,29.1870,-90.6093,1.973,13.28,11111222 
LUMCON,ioos:station:LUMCON:102:1,2019-12-02T21:00:00Z,29.1870,-90.6093,1.987,11.21,11111222 
LUMCON,ioos:station:LUMCON:102:1,2019-12-02T21:15:00Z,29.1870,-90.6093,1.993,20.93,11111222 
LUMCON,ioos:station:LUMCON:102:1,2019-12-02T21:30:00Z,29.1870,-90.6093,2.012,20.96,11111222 
LUMCON,ioos:station:LUMCON:102:1,2019-12-02T21:45:00Z,29.1870,-90.6093,2.025,21.09,11111222 
LUMCON,ioos:station:LUMCON:102:1,2019-12-02T22:00:00Z,29.1870,-90.6093,2.036,19.86,11111222 
LUMCON,ioos:station:LUMCON:102:1,2019-12-02T22:15:00Z,29.1870,-90.6093,2.044,19.53,11111222 
LUMCON,ioos:station:LUMCON:102:1,2019-12-02T22:30:00Z,29.1870,-90.6093,2.062,19.43,11111222 
LUMCON,ioos:station:LUMCON:102:1,2019-12-02T22:45:00Z,29.1870,-90.6093,2.071,19.32,11111222 
LUMCON,ioos:station:LUMCON:102:1,2019-12-02T23:00:00Z,29.1870,-90.6093,2.082,19.1,11111222 
LUMCON,ioos:station:LUMCON:102:1,2019-12-02T23:15:00Z,29.1870,-90.6093,2.086,18.71,11111222 
LUMCON,ioos:station:LUMCON:102:1,2019-12-02T23:30:00Z,29.1870,-90.6093,2.1,19.48,11111222 
LUMCON,ioos:station:LUMCON:102:1,2019-12-02T23:45:00Z,29.1870,-90.6093,2.109,19.31,11111222 
LUMCON,ioos:station:LUMCON:102:1,2019-12-03T00:00:00Z,29.1870,-90.6093,2.118,19.79,11111222 
LUMCON,ioos:station:LUMCON:102:1,2019-12-03T00:15:00Z,29.1870,-90.6093,2.127,20.25,11111222 
LUMCON,ioos:station:LUMCON:102:1,2019-12-03T00:30:00Z,29.1870,-90.6093,2.134,20.3,11111222 
LUMCON,ioos:station:LUMCON:102:1,2019-12-03T00:45:00Z,29.1870,-90.6093,2.146,20.25,11111222 
LUMCON,ioos:station:LUMCON:102:1,2019-12-03T01:00:00Z,29.1870,-90.6093,2.155,20.31,11111222 
LUMCON,ioos:station:LUMCON:102:1,2019-12-03T01:15:00Z,29.1870,-90.6093,2.159,20.3,11111222 
LUMCON,ioos:station:LUMCON:102:1,2019-12-03T01:30:00Z,29.1870,-90.6093,2.168,20.42,11111222 
LUMCON,ioos:station:LUMCON:102:1,2019-12-03T01:45:00Z,29.1870,-90.6093,2.173,20.51,11111222 
LUMCON,ioos:station:LUMCON:102:1,2019-12-03T02:00:00Z,29.1870,-90.6093,2.183,20.59,11111222 
LUMCON,ioos:station:LUMCON:102:1,2019-12-03T02:15:00Z,29.1870,-90.6093,2.19,20.52,11111222 
LUMCON,ioos:station:LUMCON:102:1,2019-12-03T02:30:00Z,29.1870,-90.6093,2.196,20.58,11111222 
LUMCON,ioos:station:LUMCON:102:1,2019-12-03T02:45:00Z,29.1870,-90.6093,2.2,20.56,11111222 
LUMCON,ioos:station:LUMCON:102:1,2019-12-03T03:00:00Z,29.1870,-90.6093,2.2,20.6,11111222 
LUMCON,ioos:station:LUMCON:102:1,2019-12-03T03:15:00Z,29.1870,-90.6093,2.208,20.6,11111222 
LUMCON,ioos:station:LUMCON:102:1,2019-12-03T03:30:00Z,29.1870,-90.6093,2.214,20.62,11111222 
LUMCON,ioos:station:LUMCON:102:1,2019-12-03T03:45:00Z,29.1870,-90.6093,2.224,20.67,11111222 
LUMCON,ioos:station:LUMCON:102:1,2019-12-03T04:00:00Z,29.1870,-90.6093,2.228,20.63,11111222 
LUMCON,ioos:station:LUMCON:102:1,2019-12-03T04:15:00Z,29.1870,-90.6093,2.234,20.68,11111222 
LUMCON,ioos:station:LUMCON:102:1,2019-12-03T04:30:00Z,29.1870,-90.6093,2.234,20.68,11111222 
LUMCON,ioos:station:LUMCON:102:1,2019-12-03T04:45:00Z,29.1870,-90.6093,2.234,20.73,11111222 
LUMCON,ioos:station:LUMCON:102:1,2019-12-03T05:00:00Z,29.1870,-90.6093,2.244,20.75,11111222 
LUMCON,ioos:station:LUMCON:102:1,2019-12-03T05:15:00Z,29.1870,-90.6093,2.247,20.8,11111222 
LUMCON,ioos:station:LUMCON:102:1,2019-12-03T05:30:00Z,29.1870,-90.6093,2.25,20.76,11111222 
LUMCON,ioos:station:LUMCON:102:1,2019-12-03T05:45:00Z,29.1870,-90.6093,2.253,20.83,11111222 
LUMCON,ioos:station:LUMCON:102:1,2019-12-03T06:00:00Z,29.1870,-90.6093,2.25,20.9,11111222 
LUMCON,ioos:station:LUMCON:102:1,2019-12-03T06:15:00Z,29.1870,-90.6093,2.252,20.96,11111222 
LUMCON,ioos:station:LUMCON:102:1,2019-12-03T06:30:00Z,29.1870,-90.6093,2.248,20.99,11111222 
LUMCON,ioos:station:LUMCON:102:1,2019-12-03T06:45:00Z,29.1870,-90.6093,2.242,21.07,11111222 
LUMCON,ioos:station:LUMCON:102:1,2019-12-03T07:00:00Z,29.1870,-90.6093,2.248,21.22,11111222 
LUMCON,ioos:station:LUMCON:102:1,2019-12-03T07:15:00Z,29.1870,-90.6093,2.239,21.21,11111222 
LUMCON,ioos:station:LUMCON:102:1,2019-12-03T07:30:00Z,29.1870,-90.6093,2.229,21.34,11111222 
LUMCON,ioos:station:LUMCON:102:1,2019-12-03T07:45:00Z,29.1870,-90.6093,2.221,21.43,11111222 
LUMCON,ioos:station:LUMCON:102:1,2019-12-03T08:00:00Z,29.1870,-90.6093,2.226,21.62,11111222 
LUMCON,ioos:station:LUMCON:102:1,2019-12-03T08:15:00Z,29.1870,-90.6093,2.226,21.72,11111222 
LUMCON,ioos:station:LUMCON:102:1,2019-12-03T08:30:00Z,29.1870,-90.6093,2.221,21.8,11111222 
LUMCON,ioos:station:LUMCON:102:1,2019-12-03T08:45:00Z,29.1870,-90.6093,2.217,22.0,11111222 
LUMCON,ioos:station:LUMCON:102:1,2019-12-03T09:00:00Z,29.1870,-90.6093,2.214,22.16,11111222 
LUMCON,ioos:station:LUMCON:102:1,2019-12-03T09:15:00Z,29.1870,-90.6093,2.21,22.32,11111222 
LUMCON,ioos:station:LUMCON:102:1,2019-12-03T09:30:00Z,29.1870,-90.6093,2.202,22.37,11111222 
LUMCON,ioos:station:LUMCON:102:1,2019-12-03T09:45:00Z,29.1870,-90.6093,2.2,22.42,11111222 
LUMCON,ioos:station:LUMCON:102:1,2019-12-03T10:00:00Z,29.1870,-90.6093,2.2,21.35,11111222 
LUMCON,ioos:station:LUMCON:102:1,2019-12-03T10:15:00Z,29.1870,-90.6093,2.194,19.83,11111222 
LUMCON,ioos:station:LUMCON:102:1,2019-12-03T10:30:00Z,29.1870,-90.6093,2.19,20.06,11111222 
LUMCON,ioos:station:LUMCON:102:1,2019-12-03T10:45:00Z,29.1870,-90.6093,2.192,18.64,11111222 
LUMCON,ioos:station:LUMCON:102:1,2019-12-03T11:00:00Z,29.1870,-90.6093,2.178,18.99,11111222 
LUMCON,ioos:station:LUMCON:102:1,2019-12-03T11:15:00Z,29.1870,-90.6093,2.181,19.16,11111222 
LUMCON,ioos:station:LUMCON:102:1,2019-12-03T11:30:00Z,29.1870,-90.6093,2.158,19.25,11111222 
LUMCON,ioos:station:LUMCON:102:1,2019-12-03T11:45:00Z,29.1870,-90.6093,2.159,19.53,11111222 
LUMCON,ioos:station:LUMCON:102:1,2019-12-03T12:00:00Z,29.1870,-90.6093,2.15,19.94,11111222 
LUMCON,ioos:station:LUMCON:102:1,2019-12-03T12:15:00Z,29.1870,-90.6093,2.148,20.21,11111222 
LUMCON,ioos:station:LUMCON:102:1,2019-12-03T12:30:00Z,29.1870,-90.6093,2.14,19.52,11111222 
LUMCON,ioos:station:LUMCON:102:1,2019-12-03T12:45:00Z,29.1870,-90.6093,2.134,19.98,11111222 
LUMCON,ioos:station:LUMCON:102:1,2019-12-03T13:00:00Z,29.1870,-90.6093,2.123,18.88,11111222 
LUMCON,ioos:station:LUMCON:102:1,2019-12-03T13:15:00Z,29.1870,-90.6093,2.119,18.41,11111222 
LUMCON,ioos:station:LUMCON:102:1,2019-12-03T13:30:00Z,29.1870,-90.6093,2.118,18.04,11111222 
LUMCON,ioos:station:LUMCON:102:1,2019-12-03T13:45:00Z,29.1870,-90.6093,2.099,17.75,11111222 
LUMCON,ioos:station:LUMCON:102:1,2019-12-03T14:00:00Z,29.1870,-90.6093,2.098,17.29,11111222 
LUMCON,ioos:station:LUMCON:102:1,2019-12-03T14:15:00Z,29.1870,-90.6093,2.088,16.95,11111222 
LUMCON,ioos:station:LUMCON:102:1,2019-12-03T14:30:00Z,29.1870,-90.6093,2.075,16.91,11111222 
LUMCON,ioos:station:LUMCON:102:1,2019-12-03T14:45:00Z,29.1870,-90.6093,2.07,16.64,11111222 
LUMCON,ioos:station:LUMCON:102:1,2019-12-03T15:00:00Z,29.1870,-90.6093,2.063,16.72,11111222 
LUMCON,ioos:station:LUMCON:102:1,2019-12-03T15:15:00Z,29.1870,-90.6093,2.048,16.58,11111222 
LUMCON,ioos:station:LUMCON:102:1,2019-12-03T15:30:00Z,29.1870,-90.6093,2.043,16.51,11111222 
LUMCON,ioos:station:LUMCON:102:1,2019-12-03T15:45:00Z,29.1870,-90.6093,2.035,16.49,11111222 
LUMCON,ioos:station:LUMCON:102:1,2019-12-03T16:00:00Z,29.1870,-90.6093,2.03,16.44,11111222 
LUMCON,ioos:station:LUMCON:102:1,2019-12-03T16:15:00Z,29.1870,-90.6093,2.024,16.54,11111222 